Home > Weather > Thalwil > Past weeks

Flag for Switzerland Weather for the Past 2 Weeks in Thalwil, Zurich, Switzerland

Now
43 °F

Light rain. Mostly cloudy.


Feels Like: 39 °F
Forecast: 44 / 60 °F
Wind: 6 mph from Southwest

Location: Zurich-Kloten

Current Time: May 1, 2016 at 4:20:24 AM

Latest Report: May 1, 2016 at 3:50 AM


Visibility: N/A

Pressure: 29.95 "Hg

Humidity: 93%

Dew Point: 41 °F

Location of ThalwilLocation

Historic Weather in Thalwil — Graph

°F

Thalwil Temperature Yesterday

Maximum temperature yesterday: 64 °F (at 2:20 PM)
Minimum temperature yesterday: 34 °F (at 5:50 AM)
Average temperature yesterday: 48 °F

High & Low Weather Summary for the Past Weeks

 TemperatureHumidityPressure
High68 °F (Apr 21, 3:50 PM)100% (Apr 16, 3:50 AM)30.33 "Hg (Apr 16, 3:50 AM)
Low27 °F (Apr 28, 5:50 AM)29% (Apr 29, 6:20 PM)29.65 "Hg (Apr 16, 10:20 PM)
Average47 °F73%29.98 "Hg
* Reported Apr 16 3:20 AM — May 1 3:20 AM, Thalwil, Weather by CustomWeather, © 2016

Note: Actual official high and low records may vary slightly from our data, if they occured in-between our weather recording intervals... More about our weather records

Advertising

Thalwil Weather History for the Previous 24 Hours

Scroll right to see more
 ConditionsComfort  
Time TempWeatherWind HumidityBarometerVisibility
3:20 AM
Sun, May 1
43 °FDrizzle. Mostly cloudy.8 mph93%29.95 "HgN/A
2:50 AM43 °FDrizzle. Mostly cloudy.9 mph93%29.95 "HgN/A
1:50 AM43 °FDrizzle. Mostly cloudy.9 mph93%29.95 "HgN/A
1:20 AM45 °FDrizzle. Mostly cloudy.6 mph87%29.98 "HgN/A
12:50 AM45 °FDrizzle. Mostly cloudy.5 mph87%29.98 "HgN/A
12:20 AM45 °FLight rain. Low clouds.7 mph87%29.95 "HgN/A
11:50 PM
Sat, Apr 30
45 °FDrizzle. Mostly cloudy.8 mph87%29.98 "HgN/A
11:20 PM45 °FPartly cloudy.7 mph87%29.98 "HgN/A
10:50 PM45 °FPassing clouds.9 mph87%29.98 "HgN/A
10:20 PM45 °FPassing clouds.9 mph87%29.98 "HgN/A
9:50 PM45 °FPassing clouds.12 mph87%29.98 "HgN/A
9:20 PM45 °FBroken clouds.8 mph87%29.98 "HgN/A
8:50 PM45 °FSprinkles. Partly sunny.10 mph87%29.95 "HgN/A
8:20 PM46 °FSprinkles. Broken clouds.7 mph87%29.95 "HgN/A
7:50 PM46 °FSprinkles. Broken clouds.12 mph87%29.95 "HgN/A
7:20 PM46 °FRain showers. Broken clouds.15 mph93%29.95 "HgN/A
6:50 PM48 °FRain showers. Broken clouds.16 mph87%29.92 "Hg4 mi
6:20 PM52 °FThunderstorms. Broken clouds.21 mph72%29.89 "HgN/A
5:50 PM63 °FThunderstorms. Broken clouds.6 mph34%29.83 "HgN/A
5:20 PM64 °FBroken clouds.8 mph34%29.86 "HgN/A
4:50 PM64 °FPartly sunny.9 mph32%29.86 "HgN/A
4:20 PM64 °FPartly sunny.7 mph37%29.86 "HgN/A
3:50 PM64 °FPartly sunny.7 mph34%29.89 "HgN/A
3:20 PM64 °FPartly sunny.8 mph34%29.89 "HgN/A
2:50 PM64 °FPartly sunny.9 mph37%29.89 "HgN/A
2:20 PM64 °FPartly sunny.8 mph34%29.92 "HgN/A
1:50 PM63 °FPartly sunny.9 mph37%29.92 "HgN/A
1:20 PM61 °FPartly sunny.8 mph45%29.92 "HgN/A
12:20 PM59 °FPartly sunny.5 mph45%29.95 "HgN/A
11:50 AM57 °FPartly sunny.3 mph48%29.98 "HgN/A
11:20 AM57 °FSunny.2 mph48%29.98 "Hg10 mi
10:20 AM54 °FScattered clouds.3 mph54%30.01 "HgN/A
9:50 AM52 °FPassing clouds.1 mph58%30.01 "HgN/A
9:20 AM48 °FScattered clouds.No wind66%30.01 "HgN/A
8:50 AM45 °FScattered clouds.2 mph81%30.01 "HgN/A
8:20 AM43 °FPartly sunny.2 mph87%30.04 "HgN/A
7:50 AM39 °FSunny.3 mph93%30.04 "Hg10 mi
7:20 AM37 °FSunny.3 mph93%30.04 "Hg10 mi
6:50 AM36 °FClear.3 mph93%30.01 "Hg10 mi
6:20 AM34 °FClear.3 mph93%30.01 "Hg10 mi
5:50 AM34 °FClear.2 mph93%30.01 "Hg10 mi
5:20 AM36 °FClear.No wind100%30.01 "Hg10 mi
4:20 AM37 °FClear.1 mph87%30.01 "Hg10 mi
Weather by CustomWeather, © 2016

See weather overviewHow to use our weather pages